Flag for Canada Weather past 2 weeks in Aklavik, Northwest Territories, Canada

Now
43 °F

Passing clouds.


Feels Like: 36 °F
Forecast: 25 / 36 °F
Wind: 13 mph from East

Location: Inuvik

Current Time: Apr 19, 2015 at 7:16:59 PM

Latest Report: Apr 19, 2015 at 6:00 PM


Visibility: 15 mi

Pressure: 29.86 "Hg

Humidity: 49%

Dew point: 25 °F

Location of AklavikLocation

Historic Weather in Aklavik — Graph

°F

Aklavik temperature yesterday

Maximum temperature yesterday: 28 °F (at 6:00 PM)
Minimum temperature yesterday: 7 °F (at 8:00 AM)
Average temperature yesterday: 17 °F

Past Weeks' High & Low Weather Summary

 TemperatureHumidityPressure
High43 °F (Apr 19, 4:00 PM)93% (Apr 11, 9:57 AM)30.43 "Hg (Apr 11, 9:57 AM)
Low-11 °F (Apr 7, 8:00 AM)45% (Apr 19, 3:00 PM)29.34 "Hg (Apr 11, 5:00 AM)
Average14 °F75%29.79 "Hg
* Reported Apr 4 6:00 PM — Apr 19 6:00 PM, Aklavik, Weather by CustomWeather, © 2015

Note: Actual official high and low records may vary slightly from our data, if they occured in-between our weather recording intervals... More about our weather records

Advertising

Aklavik weather history for previous 24 hours

 ConditionsComfort  
Time TempWeatherWind HumidityBarometerVisibility
6:00 PM
Sun, Apr 19
43 °FPassing clouds.13 mph49%29.86 "Hg15 mi
5:00 PM43 °FPassing clouds.15 mph46%29.88 "Hg15 mi
4:00 PM43 °FPassing clouds.13 mph46%29.90 "Hg15 mi
3:00 PM41 °FPassing clouds.10 mph45%29.92 "Hg15 mi
2:00 PM39 °FScattered clouds.9 mph48%29.94 "Hg15 mi
1:00 PM36 °FScattered clouds.8 mph56%29.95 "Hg15 mi
12:00 PM32 °FScattered clouds.8 mph60%29.96 "Hg15 mi
11:00 AM28 °FScattered clouds.6 mph64%29.98 "Hg15 mi
10:00 AM27 °FScattered clouds.7 mph69%29.99 "Hg15 mi
9:00 AM25 °FPassing clouds.9 mph69%30.01 "Hg15 mi
8:00 AM23 °FPassing clouds.8 mph74%30.02 "Hg15 mi
7:00 AM23 °FPassing clouds.7 mph74%30.03 "Hg15 mi
6:00 AM21 °FClear.10 mph80%30.05 "Hg15 mi
5:00 AM19 °FClear.7 mph79%30.06 "Hg15 mi
4:00 AM19 °FClear.8 mph79%30.06 "Hg15 mi
3:00 AM21 °FClear.8 mph80%30.06 "Hg15 mi
2:00 AM21 °FPassing clouds.6 mph74%30.08 "Hg15 mi
1:00 AM18 °FScattered clouds.7 mph79%30.08 "Hg15 mi
12:00 AM21 °FScattered clouds.5 mph74%30.09 "Hg15 mi
11:00 PM
Sat, Apr 18
23 °FPassing clouds.5 mph68%30.09 "Hg15 mi
10:00 PM27 °FPassing clouds.3 mph64%30.10 "Hg15 mi
9:00 PM28 °FChilly.7 mph64%30.11 "Hg15 mi
8:00 PM28 °FPartly sunny.5 mph64%30.12 "Hg15 mi
7:00 PM28 °FPartly sunny.6 mph64%30.12 "Hg15 mi
Weather by CustomWeather, © 2015

See weather overviewHow to use our weather pages